Location: PACMO
(41.3967°N, 90.3760°W)
Time: 07:46:49
(UTC-06:00)

Amateur Radio Satellites - All Passes

Search period start: 15 December 2017 07:16
Search period end: 16 December 2017 07:16
Location: PACMO, 41.3967°N, 90.3760°W

Satellite Date Start Highest point End Downlink Frequencies (MHz)
Time Altitude Azimuth
FO-29 15 Dec 07:18:15 07:25:54 68° 72° (ENE) 07:33:42 435.910
CUTE-I 15 Dec 07:22:38 07:27:22 34° 293° (WNW) 07:32:05 437.470
HO-68 15 Dec 07:27:00 07:34:12 86° 287° (WNW) 07:41:21 435.675
AAUSAT CUBESAT 2 15 Dec 07:28:14 07:32:07 37° 97° (E) 07:35:57 437.432
LilacSat-2 15 Dec 07:29:53 07:31:13 11° 296° (WNW) 07:32:31 437.200
AO-85 15 Dec 07:33:34 07:37:46 29° 246° (WSW) 07:42:10 145.980
Oscar 11 15 Dec 07:34:44 07:37:37 17° 92° (E) 07:40:28 .
CUTE 1.7 + AOD 2 15 Dec 07:35:11 07:39:17 44° 287° (WNW) 07:43:21 437.475
UNISAT 6 15 Dec 07:39:22 07:40:51 12° 62° (ENE) 07:42:20 437.425
NUDT-PHONESAT 15 Dec 07:45:20 07:46:30 11° 296° (WNW) 07:47:40 437.300
AO-73 15 Dec 07:48:39 07:52:44 37° 98° (E) 07:56:52 145.935
NO-84 15 Dec 07:52:09 07:54:25 18° 335° (NNW) 07:56:49 435.350 FM
XW-2A 15 Dec 08:08:15 08:11:39 60° 285° (WNW) 08:15:02 145.665 - 145.685
STRAND 1 15 Dec 08:22:04 08:23:17 11° 272° (W) 08:24:31 437.568
DELFI C3 15 Dec 08:26:39 08:27:28 10° 90° (E) 08:28:16 145.870
UWE-3 15 Dec 08:27:44 08:31:42 37° 288° (WNW) 08:35:46 435.000/436.395/437.385
CUBEBUG 2 15 Dec 08:30:04 08:33:14 21° 293° (WNW) 08:36:28 437.445
SEEDS 15 Dec 08:48:18 08:50:18 13° 297° (WNW) 08:52:20 437.485
ZACube-1 15 Dec 08:51:15 08:55:19 39° 288° (WNW) 08:59:27 437.345
O/OREOS (USA 219) 15 Dec 08:53:37 08:57:57 40° 298° (WNW) 09:02:17 437.305
AAUSAT CUBESAT 2 15 Dec 09:04:23 09:07:16 19° 294° (WNW) 09:10:09 437.432
FO-29 15 Dec 09:05:07 09:11:23 26° 269° (W) 09:17:45 435.910
TIGRISAT 15 Dec 09:09:13 09:13:31 81° 258° (WSW) 09:17:48 435.000
Oscar 11 15 Dec 09:09:48 09:13:55 42° 288° (WNW) 09:18:02 .
UNISAT 6 15 Dec 09:12:44 09:17:00 67° 258° (WSW) 09:21:16 437.425
HO-68 15 Dec 09:16:29 09:20:55 18° 306° (NW) 09:25:20 435.675
AO-73 15 Dec 09:25:29 09:28:42 21° 293° (WNW) 09:31:58 145.935
PRISM 15 Dec 09:38:59 09:43:07 70° 75° (ENE) 09:47:16 437.425
nSIGHT-1 15 Dec 09:55:12 09:56:52 13° 130° (SE) 09:58:32 .
DELFI C3 15 Dec 09:58:40 10:02:33 56° 286° (WNW) 10:06:22 145.870
Max Valier Satellite 15 Dec 09:59:51 10:03:36 78° 285° (WNW) 10:07:19 145.860
POLYITAN 1 15 Dec 10:06:31 10:09:10 17° 65° (ENE) 10:11:48 437.675
EO-88 15 Dec 10:26:18 10:29:53 52° 286° (WNW) 10:33:27 145.990 - 145.960
QB50P2 15 Dec 10:30:58 10:34:44 33° 70° (ENE) 10:38:30 145.880/145.840
AIST 2D 15 Dec 10:32:31 10:36:01 79° 259° (W) 10:39:34 435.315
DUCHIFAT 1 15 Dec 10:35:16 10:38:42 25° 68° (ENE) 10:42:07 145.980
ISS 15 Dec 10:38:23 10:41:14 27° 135° (SE) 10:44:05 437.550
LO-87 15 Dec 10:54:32 10:57:50 35° 98° (E) 11:01:07 145.935 - 145.965
NANOSAT C BR1 15 Dec 11:01:21 11:05:26 58° 74° (ENE) 11:09:33 145.865
Oscar 19 15 Dec 11:03:59 11:04:41 10° 57° (ENE) 11:05:22 437.125/150
NO-84 15 Dec 11:09:38 11:11:29 13° 19° (NNE) 11:13:24 435.350 FM
BUGSAT 1 15 Dec 11:13:54 11:16:22 16° 65° (ENE) 11:18:51 437.445
EO-79 15 Dec 11:17:06 11:21:18 81° 258° (WSW) 11:25:30 145.935-145.965
ESTCUBE 1 15 Dec 11:22:53 11:27:24 59° 101° (E) 11:31:52 437.505/2401.250
nSIGHT-1 15 Dec 11:29:30 11:32:41 67° 326° (NW) 11:35:54 .
POLYITAN 1 15 Dec 11:40:36 11:44:35 43° 261° (W) 11:48:35 437.675
Gurwin Techsat 1B 15 Dec 11:48:24 11:52:17 21° 63° (ENE) 11:56:09 435.225
AO-91 15 Dec 11:51:16 11:55:10 25° 69° (ENE) 11:58:47 145.960
SPROUT 15 Dec 11:51:47 11:55:27 27° 96° (E) 11:59:05 437.525
QB50P2 15 Dec 12:07:26 12:10:33 20° 266° (W) 12:13:41 145.880/145.840
DUCHIFAT 1 15 Dec 12:10:45 12:14:15 26° 264° (W) 12:17:46 145.980
ISS 15 Dec 12:14:31 12:17:37 37° 332° (NNW) 12:20:43 437.550
LO-87 15 Dec 12:29:03 12:30:54 14° 294° (WNW) 12:32:46 145.935 - 145.965
Oscar 19 15 Dec 12:37:58 12:43:05 77° 74° (ENE) 12:48:16 437.125/150
NANOSAT C BR1 15 Dec 12:40:03 12:41:30 11° 270° (W) 12:42:56 145.865
NO-84 15 Dec 12:45:49 12:49:27 47° 37° (NE) 12:53:20 435.350 FM
AO-7 15 Dec 12:46:02 12:52:02 23° 52° (NE) 12:58:03 .
BUGSAT 1 15 Dec 12:47:34 12:51:24 41° 261° (W) 12:55:13 437.445
VELOX 1 15 Dec 12:52:52 12:57:18 78° 103° (ESE) 13:01:41 145.980
ESTCUBE 1 15 Dec 13:01:10 13:03:41 15° 297° (WNW) 13:06:12 437.505/2401.250
nSIGHT-1 15 Dec 13:07:05 13:09:21 17° 345° (NNW) 13:11:38 .
YUBILEINY 15 Dec 13:13:14 13:21:29 41° 73° (ENE) 13:29:37 435.215
50 SAT 15 Dec 13:22:09 13:24:58 29° 98° (E) 13:27:46 437.505
Gurwin Techsat 1B 15 Dec 13:26:37 13:31:48 53° 260° (W) 13:37:01 435.225
AO-91 15 Dec 13:27:01 13:31:28 34° 262° (W) 13:35:35 145.960
SPROUT 15 Dec 13:27:45 13:31:14 25° 292° (WNW) 13:34:41 437.525
UKube-1 15 Dec 13:28:55 13:32:24 23° 95° (E) 13:35:52 .
RS-15 15 Dec 13:32:50 13:44:09 46° 109° (ESE) 13:55:25 29.354- 29.394
M-CUBED/EXP-1 PRIME 15 Dec 13:43:26 13:47:13 29° 63° (ENE) 13:51:10 437.505
DX 1 15 Dec 13:45:54 13:50:13 61° 102° (ESE) 13:54:28 434.975-435.025
ISS 15 Dec 13:52:47 13:54:48 15° 352° (N) 13:56:49 437.550
ITAMSAT 1 15 Dec 13:53:14 13:57:18 24° 64° (ENE) 14:01:23 435.822/435.867
ITUPSAT 1 15 Dec 14:19:25 14:21:28 13° 90° (E) 14:23:30 437.325
Oscar 19 15 Dec 14:20:53 14:22:58 12° 271° (W) 14:25:04 437.125/150
NO-84 15 Dec 14:23:26 14:26:34 23° 232° (SW) 14:29:50 435.350 FM
VELOX 1 15 Dec 14:31:55 14:33:04 11° 300° (WNW) 14:34:13 145.980
AO-7 15 Dec 14:35:28 14:43:46 88° 252° (WSW) 14:52:10 .
DOVE 4 15 Dec 14:40:00 14:42:23 13° 61° (ENE) 14:44:44 437.250
nSIGHT-1 15 Dec 14:44:44 14:46:32 14° 6° (N) 14:48:19 .
SO-50 15 Dec 14:54:54 14:59:14 53° 118° (ESE) 15:03:38 436.795
50 SAT 15 Dec 14:55:12 14:56:36 12° 294° (WNW) 14:58:01 437.505
MOZHAYETS 4 15 Dec 14:56:55 15:01:24 48° 99° (E) 15:05:53
UKube-1 15 Dec 15:04:38 15:08:24 30° 291° (WNW) 15:12:09 .
YUBILEINY 15 Dec 15:10:07 15:18:16 44° 273° (W) 15:26:22 435.215
M-CUBED/EXP-1 PRIME 15 Dec 15:17:42 15:21:28 29° 260° (W) 15:25:26 437.505
DX 1 15 Dec 15:23:46 15:25:52 13° 298° (WNW) 15:27:57 434.975-435.025
BEESAT 15 Dec 15:25:58 15:30:42 63° 102° (ESE) 15:35:25 436.000
ISS 15 Dec 15:30:03 15:32:16 17° 12° (NNE) 15:34:30 437.550
ITAMSAT 1 15 Dec 15:31:30 15:36:28 44° 261° (W) 15:41:28 435.822/435.867
RS-15 15 Dec 15:44:13 15:56:22 60° 311° (NW) 16:08:25 29.354- 29.394
ITUPSAT 1 15 Dec 15:54:58 15:59:44 68° 286° (WNW) 16:04:28 437.325
HO-68 15 Dec 16:12:04 16:15:39 15° 51° (NE) 16:19:13 435.675
DOVE 4 15 Dec 16:14:05 16:19:22 85° 257° (WSW) 16:24:31 437.250
nSIGHT-1 15 Dec 16:20:36 16:23:30 30° 25° (NNE) 16:26:23 .
CUBESAT XI-V 15 Dec 16:22:41 16:27:26 89° 282° (WNW) 16:32:09 437.345
AO-7 15 Dec 16:32:30 16:37:35 17° 270° (W) 16:42:43 .
MOZHAYETS 4 15 Dec 16:35:04 16:38:10 18° 296° (WNW) 16:41:16
LilacSat-2 15 Dec 16:35:32 16:38:47 27° 70° (ENE) 16:42:04 437.200
SO-50 15 Dec 16:36:38 16:40:00 20° 317° (NW) 16:43:25 436.795
KKS-1 15 Dec 16:39:50 16:43:29 25° 95° (E) 16:47:06 437.445
XW-2D 15 Dec 16:48:10 16:51:39 36° 72° (ENE) 16:55:10 145.860 - 145.880
NUDT-PHONESAT 15 Dec 16:48:35 16:51:34 23° 69° (ENE) 16:54:33 437.300
KAITUO 1B 15 Dec 16:53:53 16:57:09 29° 71° (ENE) 17:00:27 145.475/437.950
CUTE 1.7 + AOD 2 15 Dec 16:54:27 16:56:05 12° 63° (ENE) 16:57:44 437.475
XW-2B 15 Dec 17:03:51 17:07:32 54° 74° (ENE) 17:11:16 145.730 - 145.750
CUTE-I 15 Dec 17:04:15 17:09:27 52° 71° (ENE) 17:14:39 437.470
BEESAT 15 Dec 17:05:14 17:07:56 15° 298° (WNW) 17:10:38 436.000
ISS 15 Dec 17:06:05 17:09:19 53° 31° (NNE) 17:12:32 437.550
XW-2F 15 Dec 17:14:54 17:18:39 72° 75° (ENE) 17:22:26 145.980 - 146.000
PCSat 15 Dec 17:15:07 17:18:56 20° 106° (ESE) 17:22:44 145.827
STARS 15 Dec 17:19:45 17:23:26 26° 96° (E) 17:27:04 437.465
O/OREOS (USA 219) 15 Dec 17:24:13 17:28:26 38° 62° (ENE) 17:32:36 437.305
XW-2C 15 Dec 17:31:16 17:35:00 64° 259° (W) 17:38:48 145.795 - 145.815
UWE-3 15 Dec 17:49:53 17:52:21 16° 65° (ENE) 17:54:50 435.000/436.395/437.385
CUBEBUG 2 15 Dec 17:51:15 17:54:52 28° 70° (ENE) 17:58:25 437.445
HO-68 15 Dec 17:54:59 18:02:08 71° 71° (ENE) 18:09:18 435.675
nSIGHT-1 15 Dec 17:56:45 17:59:44 36° 222° (SW) 18:02:42 .
SEEDS 15 Dec 18:02:16 18:06:11 38° 72° (ENE) 18:10:09 437.485
RS-15 15 Dec 18:02:24 18:12:10 26° 341° (NNW) 18:21:45 29.354- 29.394
CUBESAT XI-V 15 Dec 18:03:18 18:04:01 10° 301° (WNW) 18:04:44 437.345
LilacSat-2 15 Dec 18:10:10 18:13:02 20° 266° (W) 18:15:57 437.200
ZACube-1 15 Dec 18:12:39 18:14:53 14° 64° (ENE) 18:17:09 437.345
KKS-1 15 Dec 18:16:08 18:20:01 30° 291° (WNW) 18:23:51 437.445
AAUSAT CUBESAT 2 15 Dec 18:18:18 18:21:44 25° 69° (ENE) 18:25:10 437.432
NUDT-PHONESAT 15 Dec 18:22:24 18:25:19 22° 265° (W) 18:28:16 437.300
XW-2D 15 Dec 18:23:44 18:25:57 15° 268° (W) 18:28:11 145.860 - 145.880
CUTE 1.7 + AOD 2 15 Dec 18:27:08 18:31:20 65° 259° (W) 18:35:36 437.475
KAITUO 1B 15 Dec 18:28:30 18:31:09 18° 267° (W) 18:33:49 145.475/437.950
Oscar 11 15 Dec 18:30:21 18:32:35 14° 64° (ENE) 18:34:50 .
XW-2A 15 Dec 18:38:57 18:42:04 37° 73° (ENE) 18:45:13 145.665 - 145.685
ISS 15 Dec 18:43:13 18:45:31 18° 228° (SW) 18:47:49 437.550
AO-73 15 Dec 18:44:25 18:47:55 27° 69° (ENE) 18:51:26 145.935
CUTE-I 15 Dec 18:45:52 18:49:46 20° 267° (W) 18:53:41 437.470
STRAND 1 15 Dec 18:49:11 18:53:35 28° 96° (E) 18:57:56 437.568
BEESAT 3 15 Dec 18:49:55 18:52:45 19° 111° (ESE) 18:55:35 437.485
STARS 15 Dec 18:55:59 18:59:42 28° 292° (WNW) 19:03:24 437.465
PCSat 15 Dec 18:56:30 19:01:50 58° 303° (WNW) 19:07:12 145.827
O/OREOS (USA 219) 15 Dec 19:04:15 19:07:33 20° 259° (W) 19:10:49 437.305
UWE-3 15 Dec 19:24:29 19:28:27 44° 262° (W) 19:32:25 435.000/436.395/437.385
CUBEBUG 2 15 Dec 19:28:06 19:31:28 23° 265° (W) 19:34:48 437.445
BEESAT 2 15 Dec 19:33:14 19:35:34 15° 110° (ESE) 19:37:55 435.950
SEEDS 15 Dec 19:39:08 19:42:00 18° 268° (W) 19:44:54 437.485
HO-68 15 Dec 19:45:13 19:50:26 21° 268° (W) 19:55:42 435.675
ZACube-1 15 Dec 19:46:46 19:50:45 48° 261° (W) 19:54:47 437.345
AAUSAT CUBESAT 2 15 Dec 19:53:31 19:57:03 27° 265° (W) 20:00:38 437.432
Oscar 11 15 Dec 20:04:00 20:08:14 56° 260° (W) 20:12:30 .
XW-2A 15 Dec 20:14:03 20:14:56 11° 269° (W) 20:15:50 145.665 - 145.685
FO-29 15 Dec 20:14:11 20:20:58 58° 99° (E) 20:26:52 435.910
RS-15 15 Dec 20:20:46 20:30:17 25° 17° (NNE) 20:39:25 29.354- 29.394
AO-73 15 Dec 20:20:48 20:24:07 23° 265° (W) 20:27:28 145.935
BEESAT 3 15 Dec 20:26:15 20:30:00 39° 308° (NW) 20:33:46 437.485
STRAND 1 15 Dec 20:28:12 20:32:45 34° 292° (WNW) 20:37:18 437.568
Max Valier Satellite 15 Dec 20:38:18 20:41:44 42° 73° (ENE) 20:45:14 145.860
DELFI C3 15 Dec 20:43:05 20:47:05 78° 75° (ENE) 20:51:05 145.870
PCSat 15 Dec 20:44:27 20:46:25 12° 324° (NW) 20:48:23 145.827
TIGRISAT 15 Dec 21:00:57 21:04:11 20° 94° (E) 21:07:28 435.000
EO-88 15 Dec 21:03:12 21:06:47 60° 76° (ENE) 21:10:24 145.990 - 145.960
UNISAT 6 15 Dec 21:04:19 21:07:53 24° 95° (E) 21:11:30 437.425
BEESAT 2 15 Dec 21:08:58 21:12:52 49° 307° (NW) 21:16:49 435.950
LO-87 15 Dec 21:31:20 21:33:27 15° 67° (ENE) 21:35:35 145.935 - 145.965
FALCONSAT 3 15 Dec 21:34:19 21:36:52 18° 161° (SSE) 21:39:24 435.103
AO-85 15 Dec 21:47:44 21:51:37 80° 303° (WNW) 21:55:45 145.980
FO-29 15 Dec 21:59:59 22:05:25 25° 300° (WNW) 22:10:22 435.910
Max Valier Satellite 15 Dec 22:14:22 22:15:47 12° 269° (W) 22:17:12 145.860
ESTCUBE 1 15 Dec 22:22:04 22:26:28 53° 73° (ENE) 22:30:53 437.505/2401.250
RS-15 15 Dec 22:34:24 22:46:07 58° 48° (NE) 22:57:09 29.354- 29.394
TIGRISAT 15 Dec 22:36:58 22:40:57 36° 289° (WNW) 22:45:01 435.000
UNISAT 6 15 Dec 22:40:46 22:44:35 30° 290° (WNW) 22:48:28 437.425
SPROUT 15 Dec 22:45:16 22:48:32 22° 67° (ENE) 22:51:47 437.525
PRISM 15 Dec 22:55:07 22:59:13 72° 286° (WNW) 23:03:15 437.425
EO-79 15 Dec 23:02:39 23:05:14 16° 92° (E) 23:07:50 145.935-145.965
LO-87 15 Dec 23:03:24 23:06:35 31° 263° (W) 23:09:46 145.935 - 145.965
FALCONSAT 3 15 Dec 23:12:08 23:15:25 31° 176° (S) 23:18:43 435.103
POLYITAN 1 15 Dec 23:25:09 23:28:49 28° 96° (E) 23:32:29 437.675
SO-50 15 Dec 23:25:45 23:30:18 50° 53° (NE) 23:34:54 436.795
AIST 2D 15 Dec 23:30:04 23:33:36 64° 285° (WNW) 23:37:06 435.315
AO-85 15 Dec 23:31:32 23:32:48 11° 324° (NW) 23:34:07 145.980
VELOX 1 15 Dec 23:49:35 23:54:00 68° 74° (ENE) 23:58:26 145.980
QB50P2 15 Dec 23:50:36 23:54:48 62° 101° (ESE) 23:58:59 145.880/145.840
DUCHIFAT 1 15 Dec 23:53:34 23:57:36 44° 99° (E) 00:01:37 145.980
ESTCUBE 1 16 Dec 00:01:02 00:03:34 15° 269° (W) 00:06:06 437.505/2401.250
SPROUT 16 Dec 00:20:25 00:24:12 32° 263° (W) 00:28:03 437.525
NANOSAT C BR1 16 Dec 00:20:43 00:24:56 76° 284° (WNW) 00:29:08 145.865
UKube-1 16 Dec 00:23:30 00:26:46 21° 66° (ENE) 00:30:02 .
BUGSAT 1 16 Dec 00:29:03 00:32:25 25° 96° (E) 00:35:47 437.445
EO-79 16 Dec 00:37:11 00:41:11 43° 288° (WNW) 00:45:10 145.935-145.965
DX 1 16 Dec 00:41:02 00:45:18 52° 72° (ENE) 00:49:34 434.975-435.025
RS-15 16 Dec 00:47:29 00:58:11 44° 252° (WSW) 01:08:24 29.354- 29.394
Oscar 19 16 Dec 00:49:54 00:54:16 27° 95° (E) 00:58:37 437.125/150
FALCONSAT 3 16 Dec 00:50:56 00:54:04 26° 191° (S) 00:57:12 435.103
POLYITAN 1 16 Dec 01:01:01 01:04:28 25° 292° (WNW) 01:07:55 437.675
SO-50 16 Dec 01:07:03 01:10:25 20° 249° (WSW) 01:13:48 436.795
AO-91 16 Dec 01:16:50 01:20:05 38° 98° (E) 01:23:15 145.960
50 SAT 16 Dec 01:19:19 01:22:19 41° 260° (W) 01:25:21 437.505
ITUPSAT 1 16 Dec 01:26:00 01:28:55 16° 62° (ENE) 01:31:50 437.325
QB50P2 16 Dec 01:28:18 01:30:03 12° 297° (WNW) 01:31:47 145.880/145.840
VELOX 1 16 Dec 01:29:35 01:30:52 11° 270° (W) 01:32:09 145.980
DUCHIFAT 1 16 Dec 01:30:17 01:32:54 16° 295° (WNW) 01:35:29 145.980
Gurwin Techsat 1B 16 Dec 01:42:32 01:47:49 60° 101° (E) 01:53:03 435.225
CUBESAT XI-V 16 Dec 01:53:03 01:53:37 10° 59° (ENE) 01:54:11 437.345
UKube-1 16 Dec 01:58:36 02:02:33 35° 262° (W) 02:06:32 .
MOZHAYETS 4 16 Dec 01:58:37 02:02:56 46° 72° (ENE) 02:07:19
PCSat 16 Dec 02:01:42 02:05:39 20° 44° (NE) 02:09:34 145.827
BUGSAT 1 16 Dec 02:04:20 02:07:41 25° 291° (WNW) 02:11:03 437.445
YUBILEINY 16 Dec 02:14:00 02:22:16 47° 88° (E) 02:30:34 435.215
DX 1 16 Dec 02:19:26 02:21:45 14° 268° (W) 02:24:05 434.975-435.025
Oscar 19 16 Dec 02:28:51 02:33:38 38° 291° (WNW) 02:38:24 437.125/150
FALCONSAT 3 16 Dec 02:31:17 02:32:30 11° 205° (SSW) 02:33:42 435.103
BEESAT 16 Dec 02:32:06 02:36:49 74° 75° (ENE) 02:41:35 436.000
AO-7 16 Dec 02:37:35 02:44:47 31° 96° (E) 02:51:55 .
AO-91 16 Dec 02:55:12 02:56:12 11° 296° (WNW) 02:57:10 145.960
M-CUBED/EXP-1 PRIME 16 Dec 02:56:12 02:59:28 20° 97° (E) 03:02:35 437.505
ITUPSAT 1 16 Dec 03:01:35 03:06:15 57° 259° (W) 03:10:57 437.325
BEESAT 3 16 Dec 03:06:07 03:08:20 14° 42° (NE) 03:10:31 437.485
Gurwin Techsat 1B 16 Dec 03:23:40 03:27:16 19° 298° (WNW) 03:30:50 435.225
CUBESAT XI-V 16 Dec 03:25:32 03:30:12 89° 82° (E) 03:34:56 437.345
MOZHAYETS 4 16 Dec 03:37:21 03:40:19 17° 268° (W) 03:43:19
KKS-1 16 Dec 03:37:54 03:41:30 24° 67° (ENE) 03:45:05 437.445
ITAMSAT 1 16 Dec 03:43:54 03:49:03 63° 102° (ESE) 03:54:10 435.822/435.867
PCSat 16 Dec 03:44:12 03:49:37 73° 244° (WSW) 03:54:59 145.827
BEESAT 2 16 Dec 03:50:05 03:51:57 13° 40° (NE) 03:53:47 435.950
YUBILEINY 16 Dec 04:11:05 04:19:10 39° 288° (WNW) 04:27:19 435.215
BEESAT 16 Dec 04:13:34 04:15:06 11° 270° (W) 04:16:38 436.000
DOVE 4 16 Dec 04:14:02 04:17:38 24° 93° (E) 04:21:04 437.250
STARS 16 Dec 04:16:23 04:19:55 24° 67° (ENE) 04:23:28 437.465
AO-7 16 Dec 04:29:44 04:37:56 61° 294° (WNW) 04:46:05 .
M-CUBED/EXP-1 PRIME 16 Dec 04:29:46 04:33:58 39° 295° (WNW) 04:37:55 437.505
AO-85 16 Dec 04:38:45 04:41:33 15° 40° (NE) 04:44:26 145.980
BEESAT 3 16 Dec 04:42:23 04:46:18 67° 239° (WSW) 04:50:07 437.485
XW-2C 16 Dec 05:05:02 05:06:53 13° 91° (E) 05:08:44 145.795 - 145.815
KKS-1 16 Dec 05:13:53 05:17:53 32° 263° (W) 05:21:54 437.445
CUTE-I 16 Dec 05:22:01 05:25:53 20° 92° (E) 05:29:44 437.470
ITAMSAT 1 16 Dec 05:24:41 05:27:59 17° 299° (WNW) 05:31:16 435.822/435.867
HO-68 16 Dec 05:26:05 05:28:26 12° 87° (E) 05:30:48 435.675
BEESAT 2 16 Dec 05:26:11 05:30:13 84° 239° (WSW) 05:34:11 435.950
NO-84 16 Dec 05:37:54 05:40:40 39° 132° (SE) 05:43:37 435.350 FM
LilacSat-2 16 Dec 05:42:04 05:45:44 39° 98° (E) 05:49:23 437.200
NUDT-PHONESAT 16 Dec 05:51:24 05:54:46 31° 97° (E) 05:58:07 437.300
DOVE 4 16 Dec 05:51:28 05:55:20 29° 292° (WNW) 05:59:02 437.250
STARS 16 Dec 05:52:13 05:56:07 31° 263° (W) 06:00:01 437.465
XW-2D 16 Dec 05:54:01 05:57:49 54° 100° (E) 06:01:34 145.860 - 145.880
KAITUO 1B 16 Dec 05:58:00 06:01:36 40° 98° (E) 06:05:10 145.475/437.950
STRAND 1 16 Dec 06:04:55 06:09:43 41° 69° (ENE) 06:14:30 437.568
XW-2B 16 Dec 06:09:55 06:13:47 82° 103° (ESE) 06:17:37 145.730 - 145.750
CUTE 1.7 + AOD 2 16 Dec 06:12:24 06:15:42 21° 93° (E) 06:18:59 437.475
AO-85 16 Dec 06:17:45 06:22:36 86° 57° (ENE) 06:27:45 145.980
XW-2F 16 Dec 06:20:30 06:24:21 78° 284° (WNW) 06:28:10 145.980 - 146.000
FO-29 16 Dec 06:24:49 06:31:28 32° 63° (ENE) 06:38:05 435.910
AO-7 16 Dec 06:24:59 06:28:59 15° 315° (NW) 06:33:01 .
XW-2C 16 Dec 06:37:36 06:41:17 43° 287° (WNW) 06:44:55 145.795 - 145.815
CUTE-I 16 Dec 07:01:04 07:06:12 51° 289° (WNW) 07:11:19 437.470
